Regional Weather Roundup
Issued by NWS

Home | Current Version | Previous Version | Text Only | Print | Product List | Glossary Off
Versions: 1 2 3 4 5 6 7 8 9 10 11 12 13 14 15 16 17 18 19 20 21 22 23 24 25 26 27 28 29 30 31 32 33 34 35 36 37 38 39 40 41 42 43 44 45 46 47 48 49 50

000
ASUS43 KOAX 031202
RWRNE

WEATHER ROUNDUP FOR NEBRASKA
NATIONAL WEATHER SERVICE OMAHA NE
700 AM CDT MON AUG 03 2015

NOTES: SATELLITE DATA IS BEING USED TO AUGMENT CLOUD COVER ABOVE
       12000 FEET.
       "FAIR" INDICATES FEW OR NO CLOUDS BELOW 12,000 FEET WITH NO
       SIGNIFICANT WEATHER AND/OR OBSTRUCTIONS TO VISIBILITY.

  * THESE STATIONS DO NOT REPORT WEATHER SUCH AS RAIN...SNOW OR FOG.

NEZ001>004-019>022-054>056-031300-
NEBRASKA PANHANDLE

CITY           SKY/WX    TMP DP  RH WIND       PRES   REMARKS
SCOTTSBLUFF    MOCLDY    60  55  83 E5        30.00R
6HR MIN TEMP:  60; 6HR MAX TEMP:  66;

ALLIANCE       MOCLDY    59  57  93 E6        30.01R
6HR MIN TEMP:  58; 6HR MAX TEMP:  63;

CHADRON        PTCLDY    56  54  93 SW6       30.00R
6HR MIN TEMP:  56; 6HR MAX TEMP:  66;

KIMBALL        PTCLDY    60  51  73 W5        30.05R
SIDNEY         PTCLDY    56  53  90 W8        30.03R
6HR MIN TEMP:  56; 6HR MAX TEMP:  67;

$$

NEZ057>060-069>072-079>082-031300-
SOUTHWEST NEBRASKA

CITY           SKY/WX    TMP DP  RH WIND       PRES   REMARKS
NORTH PLATTE   PTCLDY    59  57  93 E3        30.00R
6HR MIN TEMP:  58; 6HR MAX TEMP:  63;

IMPERIAL       PTCLDY    61  55  81 SE6       30.00S
6HR MIN TEMP:  60; 6HR MAX TEMP:  74;

LEXINGTON      PTCLDY    64  62  93 NE5       29.99R
MCCOOK         CLEAR     60  57  89 NE5       29.98R
6HR MIN TEMP:  60; 6HR MAX TEMP:  70;

$$

NEZ005>010-023>029-035>040-094-031300-
NORTH CENTRAL NEBRASKA

CITY           SKY/WX    TMP DP  RH WIND       PRES   REMARKS
BROKEN BOW     MOCLDY    64  59  83 CALM      30.00R
6HR MIN TEMP:  61; 6HR MAX TEMP:  67;

O`NEILL        LGT RAIN  64  62  94 W5        30.05R
ORD            PTCLDY    61  59  93 NE3       29.97S
6HR MIN TEMP:  60; 6HR MAX TEMP:  68;

$$

NEZ041-046>049-061>064-073>077-083>087-031300-
SOUTH CENTRAL NEBRASKA

CITY           SKY/WX    TMP DP  RH WIND       PRES   REMARKS
GRAND ISLAND   PTCLDY    64  63  96 NE6       29.98R
6HR MIN TEMP:  64; 6HR MAX TEMP:  67;

AURORA         PTCLDY    66  65  99 NE8       29.97S
HASTINGS       PTCLDY    66  64  93 NE8       29.97R
6HR MIN TEMP:  66; 6HR MAX TEMP:  69;

KEARNEY *      PTCLDY    64  61  88 E7        29.98S
YORK           CLEAR     66  63  88 NE7       29.96S
$$

NEZ011>018-030>034-042>045-031300-
NORTHEAST NEBRASKA

CITY           SKY/WX    TMP DP  RH WIND       PRES   REMARKS
NORFOLK        MOCLDY    64  62  93 NW3       30.00R
6HR MIN TEMP:  61; 6HR MAX TEMP:  72;

BLAIR          CLEAR     65  60  82 NE7       29.95F
COLUMBUS *     CLEAR     63  55  77 CALM      29.98R
TEKAMAH        CLEAR     64  62  93 N3        29.95S
6HR MIN TEMP:  63; 6HR MAX TEMP:  72;

$$

NEZ050>053-065>068-078-088>093-031300-
SOUTHEAST NEBRASKA

CITY           SKY/WX    TMP DP  RH WIND       PRES   REMARKS
LINCOLN        CLEAR     68  62  81 NE3       29.95R
6HR MIN TEMP:  67; 6HR MAX TEMP:  74;

OMAHA EPPLEY   MOCLDY    67  64  90 N5        29.95S
6HR MIN TEMP:  66; 6HR MAX TEMP:  73;

FALLS CITY     PTCLDY    69  66  90 E5        29.90R
6HR MIN TEMP:  69; 6HR MAX TEMP:  77;

$$

NEZ044-045-051>053-067-031300-
OMAHA AREA

CITY           SKY/WX    TMP DP  RH WIND       PRES   REMARKS
OMAHA EPPLEY   MOCLDY    67  64  90 N5        29.95S
6HR MIN TEMP:  66; 6HR MAX TEMP:  73;

BLAIR          CLEAR     65  60  82 NE7       29.95F
$$



USA.gov is the U.S. government's official web portal to all federal, state and local government web resources and services.